Regional Weather Roundup
Issued by NWS State College, PA

Home | Current Version | Previous Version | Text Only | Print | Product List | Glossary Off
Versions: 1 2 3 4 5 6 7 8 9 10 11 12 13 14 15 16 17 18 19 20 21 22 23 24 25 26 27 28 29 30 31 32 33 34 35 36 37 38 39 40 41 42 43 44 45 46 47 48 49 50

000
ASUS41 KCTP 280910
RWRCTP

REGIONAL WEATHER ROUNDUP
NATIONAL WEATHER SERVICE STATE COLLEGE PA
400 AM EST FRI NOV 28 2014

Note: "fair" indicates few or no clouds below 12,000 feet with no
significant weather and/or obstructions to visibility.

* = STATION THAT DOES NOT REPORT PRECIPITATION /E.G. RAIN...SNOW...ETC/
    THUNDER OR FOG.

PAZ002>004-007>009-013>016-020>023-029>032-281000-
WESTERN PENNSYLVANIA

CITY           SKY/WX    TMP DP  RH WIND       PRES   REMARKS
ERIE           CLOUDY    28  15  58 NW12G21   30.24R
MEADVILLE      LGT SNOW  24  19  81 W3        30.20R
FRANKLIN*      CLOUDY    23  18  80 NW5       30.20R
NEW CASTLE     FLURRIES  25  22  88 CALM      30.26R
BEAVER COUNTY  NOT AVBL
BUTLER*        CLOUDY    27  19  74 NW6       30.24S
PITTSBURGH INT LGT SNOW  27  24  89 NW6       30.23S FOG
PITTSBURGH     CLOUDY    27  20  75 NW6G17    30.22S
INDIANA*       MOCLDY    27  23  86 NW9       30.22R
LATROBE        MIX PCPN  28  25  86 W7        30.23R
WASHINGTON CO* CLOUDY    27  21  80 W5        30.26S
$$

PAZ004>006-010>012-017>019-024>028-033>037-041-042-045-046-049>053-281000-
CENTRAL PENNSYLVANIA

CITY           SKY/WX    TMP DP  RH WIND       PRES   REMARKS
BRADFORD       LGT SNOW  21  15  78 NW13      30.10S WCI   9
DUBOIS         CLOUDY    24  20  84 W7        30.13S
CLEARFIELD     PTCLDY    25  17  72 NW14      30.15R WCI  13
JOHNSTOWN      LGT SNOW  24  20  84 NW16      30.10S FOG     WCI  11
ALTOONA        LGT SNOW  27  25  92 NW9       30.15R FOG
STATE COLLEGE  MOCLDY    29  20  67 NW8G17    30.15R
WILLIAMSPORT   CLOUDY    33  22  63 W16G25    30.12R
SELINSGROVE    PTCLDY    31  21  66 W7        30.14R
FT INDIANTOWN  PTCLDY    32  22  65 W16G23    30.13S
CAPITAL CITY   CLEAR     33  22  63 W14       30.15S
HARRISBURG     PTCLDY    32  22  66 W8        30.15S
YORK           CLEAR     28  20  71 W3        30.15S
$$

PAZ038>040-043-044-047-048-054-055-060>062-067>071-281000-
EASTERN PENNSYLVANIA

CITY           SKY/WX    TMP DP  RH WIND       PRES   REMARKS
SCRANTON       CLOUDY    28  24  85 W3        30.06S
MOUNT POCONO   CLOUDY    25  21  85 NW8       29.99S
ALLENTOWN      PTCLDY    25  23  92 SW5       30.10S
QUAKERTOWN*    MOSUNNY   30  27  86 CALM      30.11S
READING        PTCLDY    31  22  69 W6        30.12S
LANCASTER      PTCLDY    29  21  72 W8        30.14R
COATESVILLE    SUNNY     28  23  80 W10       30.13S
POTTSTOWN      CLEAR     28  24  85 CALM      30.13S
BLUE BELL      PTCLDY    32  30  93 CALM      30.11S
DOYLESTOWN     CLOUDY    28  27  96 SW3       30.10S
WILLOW GROVE   NOT AVBL
NORTH PHILA    CLOUDY    34  27  75 NW7       30.14S
PHILADELPHIA   MOCLDY    34  27  75 W8        30.14S
$$



USA.gov is the U.S. government's official web portal to all federal, state and local government web resources and services.